TimeCST,TemperatureF,Dew PointF,Humidity,Sea Level PressureIn,VisibilityMPH,Wind Direction,Wind SpeedMPH,Gust SpeedMPH,PrecipitationIn,Events,Conditions,WindDirDegrees,DateUTC
12:56 AM,-15.0,-18.9,82,30.64,-9999.0,NW,8.1,-,N/A,,Unknown,320,2013-02-20 06:56:00
1:56 AM,-16.1,-20.0,82,30.63,-9999.0,NNW,6.9,-,N/A,,Unknown,330,2013-02-20 07:56:00
2:56 AM,-18.0,-23.1,78,30.64,-9999.0,NNW,4.6,-,N/A,,Unknown,330,2013-02-20 08:56:00
3:56 AM,-18.9,-23.1,81,30.63,-9999.0,Calm,Calm,-,N/A,,Unknown,0,2013-02-20 09:56:00
4:56 AM,-18.9,-20.9,91,30.62,-9999.0,Calm,Calm,-,N/A,,Unknown,0,2013-02-20 10:56:00
5:56 AM,-18.9,-24.0,78,30.63,-9999.0,WNW,3.5,-,N/A,,Unknown,290,2013-02-20 11:56:00
6:56 AM,-22.0,-27.9,74,30.62,-9999.0,Calm,Calm,-,N/A,,Unknown,0,2013-02-20 12:56:00
7:56 AM,-20.0,-24.0,82,30.63,-9999.0,Calm,Calm,-,N/A,,Unknown,0,2013-02-20 13:56:00
8:56 AM,-17.0,-18.9,91,30.63,-9999.0,Calm,Calm,-,N/A,,Unknown,0,2013-02-20 14:56:00
9:56 AM,-15.0,-16.1,95,30.62,-9999.0,Calm,Calm,-,N/A,,Unknown,0,2013-02-20 15:56:00
10:56 AM,-9.9,-14.1,82,30.61,-9999.0,South,3.5,-,N/A,,Unknown,170,2013-02-20 16:56:00
11:56 AM,-6.0,-11.0,79,30.59,-9999.0,SE,6.9,-,N/A,,Unknown,140,2013-02-20 17:56:00
12:56 PM,-4.0,-9.0,79,30.58,-9999.0,SSE,8.1,-,N/A,,Unknown,150,2013-02-20 18:56:00
1:56 PM,-2.0,-8.0,76,30.57,-9999.0,SSE,10.4,-,N/A,,Unknown,150,2013-02-20 19:56:00
2:56 PM,-0.9,-7.1,75,30.56,-9999.0,SE,8.1,-,N/A,,Unknown,140,2013-02-20 20:56:00
3:56 PM,-0.0,-6.0,76,30.54,-9999.0,SSE,9.2,-,N/A,,Unknown,160,2013-02-20 21:56:00
4:56 PM,1.0,-6.0,72,30.53,-9999.0,SSE,8.1,-,N/A,,Unknown,160,2013-02-20 22:56:00
5:56 PM,1.0,-5.1,75,30.53,-9999.0,SSE,9.2,-,N/A,,Unknown,160,2013-02-20 23:56:00
6:56 PM,1.9,-4.0,76,30.53,-9999.0,South,9.2,-,N/A,,Unknown,170,2013-02-21 00:56:00
7:56 PM,-0.0,-5.1,79,30.51,-9999.0,South,8.1,-,N/A,,Unknown,170,2013-02-21 01:56:00
8:56 PM,-2.0,-6.0,83,30.50,-9999.0,South,6.9,-,N/A,,Unknown,170,2013-02-21 02:56:00
9:56 PM,-2.0,-7.1,79,30.51,-9999.0,South,6.9,-,N/A,,Unknown,170,2013-02-21 03:56:00
10:56 PM,-2.9,-7.1,82,30.50,-9999.0,South,6.9,-,N/A,,Unknown,180,2013-02-21 04:56:00
11:56 PM,-2.0,-6.0,83,30.50,-9999.0,South,6.9,-,N/A,,Unknown,180,2013-02-21 05:56:00